Regional Weather Roundup
Issued by NWS State College, PA

Home | Current Version | Previous Version | Text Only | Print | Product List | Glossary On
Versions: 1 2 3 4 5 6 7 8 9 10 11 12 13 14 15 16 17 18 19 20 21 22 23 24 25 26 27 28 29 30 31 32 33 34 35 36 37 38 39 40 41 42 43 44 45 46 47 48 49 50
000
ASUS41 KCTP 190410
RWRCTP

REGIONAL WEATHER ROUNDUP
NATIONAL WEATHER SERVICE STATE COLLEGE PA
1200 AM EDT THU OCT 19 2017

Note: "fair" indicates few or no clouds below 12,000 feet with no
significant weather and/or obstructions to visibility.

* = STATION THAT DOES NOT REPORT PRECIPITATION /E.G. RAIN...SNOW...ETC/
    THUNDER OR FOG.

PAZ002>004-007>009-013>016-020>023-029>032-190500-
WESTERN PENNSYLVANIA

CITY           SKY/WX    TMP DP  RH WIND       PRES   REMARKS
ERIE           CLEAR     56  41  57 S9        30.15R
MEADVILLE      CLEAR     54  41  61 S5        30.19S
FRANKLIN*      CLEAR     49  39  68 S6        30.20F
NEW CASTLE     FAIR      44  43  96 CALM      30.21S
BEAVER COUNTY  NOT AVBL
BUTLER*        CLEAR    N/A N/A N/A CALM      30.21F
PITTSBURGH INT CLEAR     52  43  71 S3        30.21S
PITTSBURGH     CLEAR     52  41  66 S8        30.21F
INDIANA*       CLEAR     48  43  81 CALM      30.25F
LATROBE        CLEAR     46  43  87 CALM      30.23F FOG
WASHINGTON CO* CLEAR     45  41  86 CALM      30.25S
$$

PAZ004>006-010>012-017>019-024>028-033>037-041-042-045-046-049>053-190500-
CENTRAL PENNSYLVANIA

CITY           SKY/WX    TMP DP  RH WIND       PRES   REMARKS
BRADFORD       CLEAR     45  38  76 SE3       30.21F
DUBOIS         CLEAR     53  37  54 S6        30.22F
CLEARFIELD     CLEAR     44  41  89 N3        30.24F
JOHNSTOWN      CLEAR     53  38  56 S9        30.26F
ALTOONA        CLEAR     51  32  48 CALM      30.27S
STATE COLLEGE  PTCLDY    51  42  70 W7        30.26S
WILLIAMSPORT   CLEAR     49  46  90 CALM      30.25S
SELINSGROVE    CLEAR     45  44  97 CALM      30.27F
FT INDIANTOWN  PTCLDY    46  46 100 CALM      30.29S
CAPITAL CITY   CLEAR     49  44  83 CALM      30.28F
HARRISBURG     PTCLDY    51  48  89 E5        30.28F
YORK           CLEAR     55  43  63 S5        30.29F
$$

PAZ038>040-043-044-047-048-054-055-060>062-067>071-190500-
EASTERN PENNSYLVANIA

CITY           SKY/WX    TMP DP  RH WIND       PRES   REMARKS
SCRANTON       CLEAR     49  44  83 SE3       30.27S
MOUNT POCONO   CLEAR     49  43  80 W5        30.28F
ALLENTOWN      CLEAR     51  44  77 CALM      30.29S
QUAKERTOWN*    CLEAR     45  45 100 CALM      30.30F
READING        CLEAR     53  48  83 CALM      30.29S
LANCASTER      PTCLDY    50  48  93 CALM      30.29F
COATESVILLE    CLEAR     54  46  76 VRB3      30.31F
POTTSTOWN      CLEAR     47  45  93 CALM      30.31F
BLUE BELL      CLEAR     43  43 100 CALM      30.31F
DOYLESTOWN     CLEAR     53  45  74 S5        30.29S
WILLOW GROVE   NOT AVBL
NORTH PHILA    CLEAR     54  46  74 CALM      30.31F
PHILADELPHIA   CLEAR     58  48  69 SW8       30.31S
$$



USA.gov is the U.S. government's official web portal to all federal, state and local government web resources and services.